Year,Month,Day,Hour,Minute,Value (Times are PST for windgust in km/hr)
2016,10,15,00,18,1.60
2016,10,15,00,30,1.60
2016,10,15,00,35,1.60
2016,10,15,00,43,1.60
2016,10,15,00,44,4.80
2016,10,15,00,45,11.30
2016,10,15,00,46,9.60
2016,10,15,00,47,4.80
2016,10,15,00,48,4.80
2016,10,15,00,49,6.40
2016,10,15,00,50,1.60
2016,10,15,00,51,8.10
2016,10,15,00,52,11.30
2016,10,15,00,53,20.90
2016,10,15,00,54,3.20
2016,10,15,00,55,8.10
2016,10,15,00,56,14.50
2016,10,15,00,57,9.60
2016,10,15,00,58,6.40
2016,10,15,00,59,3.20
2016,10,15,01,00,16.10
2016,10,15,01,01,11.30
2016,10,15,01,02,8.10
2016,10,15,01,03,19.30
2016,10,15,01,04,9.60
2016,10,15,01,05,9.60
2016,10,15,01,06,11.30
2016,10,15,01,07,8.10
2016,10,15,01,08,11.30
2016,10,15,01,09,8.10
2016,10,15,01,10,11.30
2016,10,15,01,11,9.60
2016,10,15,01,12,9.60
2016,10,15,01,13,9.60
2016,10,15,01,14,8.10
2016,10,15,01,15,8.10
2016,10,15,01,16,6.40
2016,10,15,01,17,3.20
2016,10,15,01,18,3.20
2016,10,15,01,19,1.60
2016,10,15,01,20,8.10
2016,10,15,01,21,19.30
2016,10,15,01,22,3.20
2016,10,15,01,24,4.80
2016,10,15,01,25,9.60
2016,10,15,01,26,9.60
2016,10,15,01,27,9.60
2016,10,15,01,28,4.80
2016,10,15,01,29,8.10
2016,10,15,01,31,1.60
2016,10,15,01,33,4.80
2016,10,15,01,34,9.60
2016,10,15,01,35,6.40
2016,10,15,01,39,3.20
2016,10,15,01,41,3.20
2016,10,15,01,42,1.60
2016,10,15,01,43,1.60
2016,10,15,01,44,6.40
2016,10,15,02,00,1.60
2016,10,15,02,32,1.60
2016,10,15,03,05,1.60
2016,10,15,03,56,1.60
2016,10,15,04,11,1.60
2016,10,15,04,22,1.60
2016,10,15,04,28,1.60
2016,10,15,04,46,1.60
2016,10,15,04,58,1.60
2016,10,15,04,59,3.20
2016,10,15,05,00,3.20
2016,10,15,06,23,1.60
2016,10,15,06,25,3.20
2016,10,15,06,30,1.60
2016,10,15,06,34,3.20
2016,10,15,06,35,3.20
2016,10,15,06,51,1.60
2016,10,15,06,52,1.60
2016,10,15,07,20,1.60
2016,10,15,07,24,1.60
2016,10,15,07,26,4.80
2016,10,15,07,28,4.80
2016,10,15,07,29,3.20
2016,10,15,07,31,8.10
2016,10,15,07,32,8.10
2016,10,15,07,33,4.80
2016,10,15,07,34,11.30
2016,10,15,07,35,6.40
2016,10,15,07,36,8.10
2016,10,15,07,37,4.80
2016,10,15,07,39,3.20
2016,10,15,07,40,3.20
2016,10,15,07,41,1.60
2016,10,15,07,42,3.20
2016,10,15,07,43,3.20
2016,10,15,07,44,1.60
2016,10,15,07,49,3.20
2016,10,15,07,50,4.80
2016,10,15,07,51,1.60
2016,10,15,07,52,1.60
2016,10,15,07,54,4.80
2016,10,15,07,55,1.60
2016,10,15,08,01,3.20
2016,10,15,08,02,3.20
2016,10,15,08,04,6.40
2016,10,15,08,05,8.10
2016,10,15,08,06,8.10
2016,10,15,08,07,1.60
2016,10,15,08,08,3.20
2016,10,15,08,09,6.40
2016,10,15,08,10,4.80
2016,10,15,08,11,17.70
2016,10,15,08,12,6.40
2016,10,15,08,13,3.20
2016,10,15,08,14,8.10
2016,10,15,08,17,3.20
2016,10,15,08,18,6.40
2016,10,15,08,19,3.20
2016,10,15,08,20,8.10
2016,10,15,08,21,8.10
2016,10,15,08,22,6.40
2016,10,15,08,23,1.60
2016,10,15,08,24,1.60
2016,10,15,08,25,4.80
2016,10,15,08,26,6.40
2016,10,15,08,27,4.80
2016,10,15,08,28,8.10
2016,10,15,08,29,4.80
2016,10,15,08,30,4.80
2016,10,15,08,31,8.10
2016,10,15,08,32,8.10
2016,10,15,08,33,6.40
2016,10,15,08,34,4.80
2016,10,15,08,35,4.80
2016,10,15,08,36,4.80
2016,10,15,08,37,3.20
2016,10,15,08,38,9.60
2016,10,15,08,39,8.10
2016,10,15,08,40,9.60
2016,10,15,08,41,1.60
2016,10,15,08,42,3.20
2016,10,15,08,43,1.60
2016,10,15,08,44,1.60
2016,10,15,08,47,4.80
2016,10,15,08,48,3.20
2016,10,15,08,50,1.60
2016,10,15,08,52,8.10
2016,10,15,08,53,6.40
2016,10,15,08,54,8.10
2016,10,15,08,55,4.80
2016,10,15,08,56,3.20
2016,10,15,08,58,6.40
2016,10,15,08,59,4.80
2016,10,15,09,00,4.80
2016,10,15,09,01,3.20
2016,10,15,09,02,3.20
2016,10,15,09,03,8.10
2016,10,15,09,04,6.40
2016,10,15,09,05,1.60
2016,10,15,09,06,1.60
2016,10,15,09,07,3.20
2016,10,15,09,08,1.60
2016,10,15,09,10,1.60
2016,10,15,09,11,1.60
2016,10,15,09,12,4.80
2016,10,15,09,13,4.80
2016,10,15,09,14,8.10
2016,10,15,09,15,11.30
2016,10,15,09,16,9.60
2016,10,15,09,18,1.60
2016,10,15,09,19,4.80
2016,10,15,09,20,3.20
2016,10,15,09,21,6.40
2016,10,15,09,22,8.10
2016,10,15,09,23,4.80
2016,10,15,09,24,3.20
2016,10,15,09,26,1.60
2016,10,15,09,27,1.60
2016,10,15,09,28,20.90
2016,10,15,09,29,9.60
2016,10,15,09,30,9.60
2016,10,15,09,31,9.60
2016,10,15,09,32,3.20
2016,10,15,09,35,4.80
2016,10,15,09,36,3.20
2016,10,15,09,37,9.60
2016,10,15,09,38,3.20
2016,10,15,09,39,6.40
2016,10,15,09,40,3.20
2016,10,15,09,41,3.20
2016,10,15,09,42,1.60
2016,10,15,09,45,1.60
2016,10,15,09,47,3.20
2016,10,15,09,48,1.60
2016,10,15,09,51,6.40
2016,10,15,09,52,11.30
2016,10,15,09,53,3.20
2016,10,15,09,54,4.80
2016,10,15,09,55,1.60
2016,10,15,09,56,1.60
2016,10,15,09,57,3.20
2016,10,15,09,58,1.60
2016,10,15,09,59,3.20
2016,10,15,10,00,3.20
2016,10,15,10,01,3.20
2016,10,15,10,02,1.60
2016,10,15,10,03,1.60
2016,10,15,10,04,4.80
2016,10,15,10,07,1.60
2016,10,15,10,08,4.80
2016,10,15,10,09,3.20
2016,10,15,10,10,3.20
2016,10,15,10,11,8.10
2016,10,15,10,12,3.20
2016,10,15,10,13,1.60
2016,10,15,10,22,1.60
2016,10,15,10,23,1.60
2016,10,15,10,24,1.60
2016,10,15,10,25,6.40
2016,10,15,10,28,1.60
2016,10,15,10,29,3.20
2016,10,15,10,31,1.60
2016,10,15,10,33,4.80
2016,10,15,10,38,1.60
2016,10,15,10,44,1.60
2016,10,15,10,45,3.20
2016,10,15,10,46,1.60
2016,10,15,10,47,6.40
2016,10,15,10,48,6.40
2016,10,15,10,50,4.80
2016,10,15,10,52,1.60
2016,10,15,10,55,4.80
2016,10,15,10,56,3.20
2016,10,15,10,57,1.60
2016,10,15,10,58,4.80
2016,10,15,10,59,3.20
2016,10,15,11,01,1.60
2016,10,15,11,02,3.20
2016,10,15,11,06,6.40
2016,10,15,11,07,4.80
2016,10,15,11,08,3.20
2016,10,15,11,09,3.20
2016,10,15,11,10,4.80
2016,10,15,11,12,6.40
2016,10,15,11,13,1.60
2016,10,15,11,14,1.60
2016,10,15,11,15,4.80
2016,10,15,11,18,3.20
2016,10,15,11,19,3.20
2016,10,15,11,21,9.60
2016,10,15,11,22,6.40
2016,10,15,11,24,3.20
2016,10,15,11,25,8.10
2016,10,15,11,26,1.60
2016,10,15,11,27,1.60
2016,10,15,11,28,1.60
2016,10,15,11,29,1.60
2016,10,15,11,30,1.60
2016,10,15,11,31,4.80
2016,10,15,11,32,3.20
2016,10,15,11,33,1.60
2016,10,15,11,34,3.20
2016,10,15,11,35,8.10
2016,10,15,11,36,6.40
2016,10,15,11,39,8.10
2016,10,15,11,40,4.80
2016,10,15,11,41,8.10
2016,10,15,11,42,4.80
2016,10,15,11,44,11.30
2016,10,15,11,45,8.10
2016,10,15,11,46,3.20
2016,10,15,11,47,8.10
2016,10,15,11,48,8.10
2016,10,15,11,49,9.60
2016,10,15,11,50,6.40
2016,10,15,11,51,3.20
2016,10,15,11,53,16.10
2016,10,15,11,54,16.10
2016,10,15,11,55,4.80
2016,10,15,11,56,6.40
2016,10,15,11,57,8.10
2016,10,15,11,58,9.60
2016,10,15,11,59,9.60
2016,10,15,12,00,9.60
2016,10,15,12,01,3.20
2016,10,15,12,02,1.60
2016,10,15,12,03,1.60
2016,10,15,12,04,9.60
2016,10,15,12,05,19.30
2016,10,15,12,06,8.10
2016,10,15,12,07,4.80
2016,10,15,12,08,1.60
2016,10,15,12,09,8.10
2016,10,15,12,10,9.60
2016,10,15,12,11,14.50
2016,10,15,12,12,8.10
2016,10,15,12,13,6.40
2016,10,15,12,14,8.10
2016,10,15,12,15,4.80
2016,10,15,12,16,8.10
2016,10,15,12,17,8.10
2016,10,15,12,18,3.20
2016,10,15,12,19,8.10
2016,10,15,12,20,4.80
2016,10,15,12,21,6.40
2016,10,15,12,22,6.40
2016,10,15,12,23,8.10
2016,10,15,12,24,14.50
2016,10,15,12,25,4.80
2016,10,15,12,26,6.40
2016,10,15,12,27,4.80
2016,10,15,12,28,4.80
2016,10,15,12,29,8.10
2016,10,15,12,30,6.40
2016,10,15,12,31,8.10
2016,10,15,12,32,16.10
2016,10,15,12,33,6.40
2016,10,15,12,34,1.60
2016,10,15,12,35,14.50
2016,10,15,12,36,9.60
2016,10,15,12,37,6.40
2016,10,15,12,38,4.80
2016,10,15,12,39,1.60
2016,10,15,12,40,16.10
2016,10,15,12,41,4.80
2016,10,15,12,42,11.30
2016,10,15,12,43,6.40
2016,10,15,12,44,3.20
2016,10,15,12,45,1.60
2016,10,15,12,47,6.40
2016,10,15,12,48,11.30
2016,10,15,12,49,9.60
2016,10,15,12,50,14.50
2016,10,15,12,51,6.40
2016,10,15,12,52,3.20
2016,10,15,12,53,4.80
2016,10,15,12,55,6.40
2016,10,15,12,56,14.50
2016,10,15,12,57,4.80
2016,10,15,12,58,6.40
2016,10,15,12,59,1.60
2016,10,15,13,00,8.10
2016,10,15,13,01,17.70
2016,10,15,13,02,17.70
2016,10,15,13,03,8.10
2016,10,15,13,04,11.30
2016,10,15,13,05,6.40
2016,10,15,13,06,3.20
2016,10,15,13,08,4.80
2016,10,15,13,09,16.10
2016,10,15,13,10,9.60
2016,10,15,13,11,11.30
2016,10,15,13,12,6.40
2016,10,15,13,13,9.60
2016,10,15,13,14,6.40
2016,10,15,13,15,9.60
2016,10,15,13,16,6.40
2016,10,15,13,17,4.80
2016,10,15,13,18,6.40
2016,10,15,13,19,6.40
2016,10,15,13,20,4.80
2016,10,15,13,21,16.10
2016,10,15,13,22,8.10
2016,10,15,13,23,6.40
2016,10,15,13,24,11.30
2016,10,15,13,25,8.10
2016,10,15,13,26,9.60
2016,10,15,13,27,19.30
2016,10,15,13,28,11.30
2016,10,15,13,29,9.60
2016,10,15,13,30,11.30
2016,10,15,13,31,14.50
2016,10,15,13,32,16.10
2016,10,15,13,33,14.50
2016,10,15,13,34,6.40
2016,10,15,13,35,4.80
2016,10,15,13,36,22.50
2016,10,15,13,37,8.10
2016,10,15,13,38,4.80
2016,10,15,13,39,8.10
2016,10,15,13,40,20.90
2016,10,15,13,41,8.10
2016,10,15,13,42,9.60
2016,10,15,13,43,11.30
2016,10,15,13,44,1.60
2016,10,15,13,45,6.40
2016,10,15,13,46,6.40
2016,10,15,13,47,11.30
2016,10,15,13,48,6.40
2016,10,15,13,49,6.40
2016,10,15,13,50,11.30
2016,10,15,13,51,8.10
2016,10,15,13,52,4.80
2016,10,15,13,53,9.60
2016,10,15,13,54,9.60
2016,10,15,13,55,8.10
2016,10,15,13,56,6.40
2016,10,15,13,57,19.30
2016,10,15,13,58,16.10
2016,10,15,13,59,6.40
2016,10,15,14,00,8.10
2016,10,15,14,01,8.10
2016,10,15,14,02,9.60
2016,10,15,14,03,19.30
2016,10,15,14,04,17.70
2016,10,15,14,05,9.60
2016,10,15,14,06,11.30
2016,10,15,14,07,12.90
2016,10,15,14,08,17.70
2016,10,15,14,09,8.10
2016,10,15,14,10,16.10
2016,10,15,14,11,9.60
2016,10,15,14,12,11.30
2016,10,15,14,13,6.40
2016,10,15,14,14,11.30
2016,10,15,14,15,11.30
2016,10,15,14,16,20.90
2016,10,15,14,17,16.10
2016,10,15,14,18,8.10
2016,10,15,14,19,16.10
2016,10,15,14,20,19.30
2016,10,15,14,21,11.30
2016,10,15,14,22,27.40
2016,10,15,14,23,27.40
2016,10,15,14,24,1.60
2016,10,15,14,25,19.30
2016,10,15,14,26,9.60
2016,10,15,14,27,11.30
2016,10,15,14,28,17.70
2016,10,15,14,29,24.20
2016,10,15,14,30,24.20
2016,10,15,14,31,14.50
2016,10,15,14,32,6.40
2016,10,15,14,33,14.50
2016,10,15,14,34,19.30
2016,10,15,14,35,8.10
2016,10,15,14,36,16.10
2016,10,15,14,37,16.10
2016,10,15,14,38,9.60
2016,10,15,14,39,27.40
2016,10,15,14,40,17.70
2016,10,15,14,41,4.80
2016,10,15,14,42,8.10
2016,10,15,14,43,17.70
2016,10,15,14,44,11.30
2016,10,15,14,45,19.30
2016,10,15,14,46,12.90
2016,10,15,14,47,30.60
2016,10,15,14,48,17.70
2016,10,15,14,49,8.10
2016,10,15,14,50,19.30
2016,10,15,14,51,14.50
2016,10,15,14,52,8.10
2016,10,15,14,53,6.40
2016,10,15,14,54,11.30
2016,10,15,14,55,12.90
2016,10,15,14,56,6.40
2016,10,15,14,57,14.50
2016,10,15,14,58,16.10
2016,10,15,14,59,19.30
2016,10,15,15,00,9.60
2016,10,15,15,01,24.20
2016,10,15,15,02,27.40
2016,10,15,15,03,9.60
2016,10,15,15,04,19.30
2016,10,15,15,05,19.30
2016,10,15,15,06,12.90
2016,10,15,15,07,20.90
2016,10,15,15,08,22.50
2016,10,15,15,09,32.20
2016,10,15,15,10,25.70
2016,10,15,15,11,17.70
2016,10,15,15,12,17.70
2016,10,15,15,13,20.90
2016,10,15,15,17,22.50
2016,10,15,15,18,11.30
2016,10,15,15,19,11.30
2016,10,15,15,20,32.20
2016,10,15,15,21,19.30
2016,10,15,15,22,19.30
2016,10,15,15,23,24.20
2016,10,15,15,24,32.20
2016,10,15,15,25,22.50
2016,10,15,15,26,8.10
2016,10,15,15,27,22.50
2016,10,15,15,28,11.30
2016,10,15,15,29,6.40
2016,10,15,15,30,16.10
2016,10,15,15,31,24.20
2016,10,15,15,32,17.70
2016,10,15,15,33,14.50
2016,10,15,15,34,11.30
2016,10,15,15,35,11.30
2016,10,15,15,36,19.30
2016,10,15,15,37,11.30
2016,10,15,15,38,9.60
2016,10,15,15,39,20.90
2016,10,15,15,40,14.50
2016,10,15,15,41,11.30
2016,10,15,15,42,8.10
2016,10,15,15,43,9.60
2016,10,15,15,47,11.30
2016,10,15,15,48,16.10
2016,10,15,15,49,14.50
2016,10,15,15,50,8.10
2016,10,15,15,51,20.90
2016,10,15,15,52,11.30
2016,10,15,15,53,6.40
2016,10,15,15,54,16.10
2016,10,15,15,55,8.10
2016,10,15,15,56,6.40
2016,10,15,15,57,4.80
2016,10,15,15,58,6.40
2016,10,15,15,59,25.70
2016,10,15,16,00,20.90
2016,10,15,16,01,9.60
2016,10,15,16,02,9.60
2016,10,15,16,03,9.60
2016,10,15,16,04,9.60
2016,10,15,16,05,29.00
2016,10,15,16,06,6.40
2016,10,15,16,07,9.60
2016,10,15,16,08,4.80
2016,10,15,16,09,17.70
2016,10,15,16,10,14.50
2016,10,15,16,11,16.10
2016,10,15,16,12,11.30
2016,10,15,16,13,14.50
2016,10,15,16,14,6.40
2016,10,15,16,15,11.30
2016,10,15,16,16,16.10
2016,10,15,16,17,16.10
2016,10,15,16,18,12.90
2016,10,15,16,19,4.80
2016,10,15,16,20,8.10
2016,10,15,16,21,4.80
2016,10,15,16,22,17.70
2016,10,15,16,23,6.40
2016,10,15,16,24,20.90
2016,10,15,16,25,8.10
2016,10,15,16,26,16.10
2016,10,15,16,27,16.10
2016,10,15,16,28,14.50
2016,10,15,16,29,11.30
2016,10,15,16,30,8.10
2016,10,15,16,31,14.50
2016,10,15,16,32,11.30
2016,10,15,16,33,9.60
2016,10,15,16,34,1.60
2016,10,15,16,35,3.20
2016,10,15,16,36,12.90
2016,10,15,16,37,3.20
2016,10,15,16,38,4.80
2016,10,15,16,39,1.60
2016,10,15,16,40,9.60
2016,10,15,16,41,9.60
2016,10,15,16,42,16.10
2016,10,15,16,43,16.10
2016,10,15,16,44,19.30
2016,10,15,16,45,11.30
2016,10,15,16,46,6.40
2016,10,15,16,47,9.60
2016,10,15,16,48,9.60
2016,10,15,16,49,6.40
2016,10,15,16,50,6.40
2016,10,15,16,51,8.10
2016,10,15,16,52,9.60
2016,10,15,16,53,14.50
2016,10,15,16,54,11.30
2016,10,15,16,55,4.80
2016,10,15,16,56,1.60
2016,10,15,16,57,1.60
2016,10,15,16,58,6.40
2016,10,15,16,59,4.80
2016,10,15,17,00,4.80
2016,10,15,17,01,6.40
2016,10,15,17,02,9.60
2016,10,15,17,03,8.10
2016,10,15,17,04,9.60
2016,10,15,17,05,12.90
2016,10,15,17,06,4.80
2016,10,15,17,07,8.10
2016,10,15,17,08,3.20
2016,10,15,17,10,1.60
2016,10,15,17,11,11.30
2016,10,15,17,12,6.40
2016,10,15,17,13,8.10
2016,10,15,17,14,6.40
2016,10,15,17,15,4.80
2016,10,15,17,16,4.80
2016,10,15,17,18,6.40
2016,10,15,17,19,9.60
2016,10,15,17,20,11.30
2016,10,15,17,21,6.40
2016,10,15,17,22,4.80
2016,10,15,17,23,4.80
2016,10,15,17,24,9.60
2016,10,15,17,25,6.40
2016,10,15,17,26,4.80
2016,10,15,17,27,1.60
2016,10,15,17,28,6.40
2016,10,15,17,29,14.50
2016,10,15,17,30,17.70
2016,10,15,17,31,19.30
2016,10,15,17,32,11.30
2016,10,15,17,33,8.10
2016,10,15,17,34,11.30
2016,10,15,17,35,4.80
2016,10,15,17,37,6.40
2016,10,15,17,38,17.70
2016,10,15,17,39,11.30
2016,10,15,17,40,16.10
2016,10,15,17,41,11.30
2016,10,15,17,42,22.50
2016,10,15,17,43,11.30
2016,10,15,17,44,33.80
2016,10,15,17,45,16.10
2016,10,15,17,46,14.50
2016,10,15,17,47,19.30
2016,10,15,17,48,11.30
2016,10,15,17,49,22.50
2016,10,15,17,50,20.90
2016,10,15,17,51,9.60
2016,10,15,17,52,17.70
2016,10,15,17,53,19.30
2016,10,15,17,54,29.00
2016,10,15,17,55,17.70
2016,10,15,17,56,17.70
2016,10,15,17,57,20.90
2016,10,15,17,58,20.90
2016,10,15,17,59,6.40
2016,10,15,18,00,8.10
2016,10,15,18,01,6.40
2016,10,15,18,02,6.40
2016,10,15,18,03,1.60
2016,10,15,18,04,11.30
2016,10,15,18,05,16.10
2016,10,15,18,06,11.30
2016,10,15,18,07,11.30
2016,10,15,18,08,22.50
2016,10,15,18,09,19.30
2016,10,15,18,10,17.70
2016,10,15,18,11,19.30
2016,10,15,18,12,14.50
2016,10,15,18,13,22.50
2016,10,15,18,14,25.70
2016,10,15,18,15,22.50
2016,10,15,18,16,17.70
2016,10,15,18,17,35.40
2016,10,15,18,18,27.40
2016,10,15,18,19,19.30
2016,10,15,18,20,8.10
2016,10,15,18,21,9.60
2016,10,15,18,22,17.70
2016,10,15,18,23,27.40
2016,10,15,18,24,17.70
2016,10,15,18,25,9.60
2016,10,15,18,26,14.50
2016,10,15,18,27,9.60
2016,10,15,18,28,20.90
2016,10,15,18,29,19.30
2016,10,15,18,30,24.20
2016,10,15,18,31,27.40
2016,10,15,18,32,33.80
2016,10,15,18,33,29.00
2016,10,15,18,34,17.70
2016,10,15,18,35,25.70
2016,10,15,18,36,9.60
2016,10,15,18,37,17.70
2016,10,15,18,38,20.90
2016,10,15,18,42,25.70
2016,10,15,18,43,33.80
2016,10,15,18,44,11.30
2016,10,15,18,45,14.50
2016,10,15,18,46,17.70
2016,10,15,18,47,20.90
2016,10,15,18,48,17.70
2016,10,15,18,49,35.40
2016,10,15,18,50,22.50
2016,10,15,18,51,19.30
2016,10,15,18,52,20.90
2016,10,15,18,53,11.30
2016,10,15,18,54,22.50
2016,10,15,18,55,16.10
2016,10,15,18,56,14.50
2016,10,15,18,57,19.30
2016,10,15,18,58,32.20
2016,10,15,19,05,20.90
2016,10,15,19,06,19.30
2016,10,15,19,07,30.60
2016,10,15,19,08,38.60
2016,10,15,19,09,45.10
2016,10,15,19,10,25.70
2016,10,15,19,11,43.50
2016,10,15,19,12,33.80
2016,10,15,19,13,32.20
2016,10,15,19,14,25.70
2016,10,15,19,15,41.80
2016,10,15,19,16,35.40
2016,10,15,19,17,45.10
2016,10,15,19,18,54.70
2016,10,15,19,19,35.40
2016,10,15,19,20,43.50
2016,10,15,19,21,43.50
2016,10,15,19,22,29.00
2016,10,15,19,23,32.20
2016,10,15,19,24,35.40
2016,10,15,19,25,33.80
2016,10,15,19,26,35.40
2016,10,15,19,27,19.30
2016,10,15,19,28,38.60
2016,10,15,19,29,30.60
2016,10,15,19,30,37.00
2016,10,15,19,31,19.30
